Weather History for Shoreham, United Kingdom

Change the Weather History Date:

Tuesday, September 24, 2013

  Actual Average Record
Temperature  
Mean Temperature 58 °F -  
Max Temperature 66 °F 58 °F 69 °F (1998)
Min Temperature 49 °F 50 °F 39 °F (2003)
Degree Days  
Heating Degree Days 8    
Growing Degree Days 8 (Base 50)    
Moisture  
Dew Point 58 °F    
Average Humidity 85    
Maximum Humidity 100    
Minimum Humidity 67    
Precipitation  
Precipitation 0.01 in - - ()
Sea Level Pressure  
Sea Level Pressure 29.99 in    
Wind  
Wind Speed 5 mph ()    
Max Wind Speed 8 mph    
Max Gust Speed -    
Visibility 3.2 miles    
Events Fog    
Averages and records for this station are not official NWS values.
T = Trace of Precipitation, MM = Missing Value Source: Averaged Metar Reports

Daily Weather History Graph

Daily Weather History Graph

Search for Another Location

Airport:

Trip Planner

Search our weather history database for the weather conditions in past years. The results will help you decide how hot, cold, wet, or windy it might be!

Date:

Astronomy

Sep. 24, 2013 Rise Set
Actual Time 6:50 AM BST 6:54 PM BST
Civil Twilight 6:17 AM BST 7:27 PM BST
Nautical Twilight 5:39 AM BST 8:06 PM BST
Astronomical Twilight 4:58 AM BST 8:45 PM BST
Moon 9:27 PM BST (9/24) 12:24 PM BST (9/24)
Length of Visible Light 13h 09m
Length of Day
12h 04m
Waning Gibbous, 75% of the Moon is Illuminated
Sep 24
Waning Gibbous
Sep 27
Last Quarter
Oct 5
New
Oct 12
First Quarter
Oct 19
Full

Hourly Weather History & Observations

Time (BST) Temp. Dew Point Humidity Pressure Visibility Wind Dir Wind Speed Gust Speed Precip Events Conditions
12:50 AM 54 °F 53 °F 95% 30.11 in - NNE 4.6 mph - -  
6:50 AM 50 °F 50 °F 99% 30.04 in - North 8.1 mph - -  
9:50 AM 56 °F 56 °F 99% 30.02 in - North 6.9 mph - -  
10:20 AM 57.2 °F 57.2 °F 100% 30.01 in 2.5 mi North 6.9 mph - N/A Fog Unknown
10:50 AM 59.0 °F 59.0 °F 100% 30.01 in 3.1 mi North 6.9 mph - N/A Fog Unknown
11:20 AM 62.6 °F 59.0 °F 88% 30.01 in 2.8 mi SSW 2.3 mph - N/A Fog Fog
11:50 AM 64.4 °F 60.8 °F 88% 30.01 in 0.3 mi North 3.5 mph - N/A Fog Fog
12:20 PM 62.6 °F 60.8 °F 94% 30.01 in 0.4 mi SSE 5.8 mph - N/A Fog Fog
12:50 PM 64 °F 61 °F 87% 30.01 in - South 6.9 mph - -  
12:50 PM 62.6 °F 60.8 °F 94% 30.01 in 1.1 mi South 6.9 mph - N/A Fog Fog
1:20 PM 64.4 °F 60.8 °F 88% 29.98 in - SSE 6.9 mph - N/A Fog Fog
1:50 PM 64.4 °F 60.8 °F 88% 29.98 in - SE 8.1 mph - N/A Fog Fog
2:20 PM 66.2 °F 60.8 °F 83% 29.98 in 3.7 mi SE 6.9 mph - N/A Fog Fog
2:50 PM 66.2 °F 59.0 °F 78% 29.98 in 4.3 mi SE 8.1 mph - N/A Fog Fog
3:20 PM 66.2 °F 57.2 °F 73% 29.98 in 5.0 mi SSE 5.8 mph - N/A   Unknown
3:50 PM 66 °F 58 °F 67% 29.98 in - South 4.6 mph - -  
3:50 PM 66.2 °F 57.2 °F 73% 29.98 in 5.6 mi South 4.6 mph - N/A   Unknown
4:20 PM 66.2 °F 59.0 °F 78% 29.95 in - South 4.6 mph - N/A   Clear
4:50 PM 64.4 °F 57.2 °F 77% 29.95 in - SE 5.8 mph - N/A   Clear
5:20 PM 66.2 °F 57.2 °F 73% 29.95 in - South 3.5 mph - N/A   Clear
5:50 PM 64.4 °F 57.2 °F 77% 29.95 in - SE 2.3 mph - N/A   Clear
6:20 PM 62.6 °F 55.4 °F 77% 29.95 in - SE 3.5 mph - N/A   Clear
6:50 PM 61 °F 56 °F 78% 29.95 in - SSE 2.3 mph - -  
6:50 PM 60.8 °F 55.4 °F 82% 29.95 in 6.2 mi SSE 3.5 mph - N/A   Partly Cloudy
9:50 PM 55 °F 53 °F 92% 29.94 in - NNE 4.6 mph - -